Time,TemperatureF,DewpointF,PressureIn,WindDirection,WindDirectionDegrees,WindSpeedMPH,WindSpeedGustMPH,Humidity,HourlyPrecipIn,Conditions,Clouds,dailyrainin,SoftwareType,DateUTC
2013-08-05 00:11:00,68.0,54.9,30.12,East,100,3.0,3.0,63,0.00,CLR,CLR,0.00,WeatherDisplay:10.37,2013-08-05 05:11:00,
2013-08-05 00:41:00,66.0,54.7,30.12,East,100,0.0,0.0,67,0.00,CLR,CLR,0.00,WeatherDisplay:10.37,2013-08-05 05:41:00,
2013-08-05 01:11:00,66.0,54.7,30.12,East,100,0.0,0.0,67,0.00,CLR,CLR,0.00,WeatherDisplay:10.37,2013-08-05 06:11:00,
2013-08-05 01:41:00,64.0,56.7,30.10,East,100,0.0,0.0,77,0.00,CLR,CLR,0.00,WeatherDisplay:10.37,2013-08-05 06:41:00,
2013-08-05 02:11:00,64.0,56.7,30.10,East,100,0.0,0.0,77,0.00,CLR,CLR,0.00,WeatherDisplay:10.37,2013-08-05 07:11:00,
2013-08-05 02:41:00,64.0,55.6,30.09,East,100,0.0,0.0,74,0.00,CLR,CLR,0.00,WeatherDisplay:10.37,2013-08-05 07:41:00,
2013-08-05 03:11:00,64.0,55.6,30.09,East,100,0.0,0.0,74,0.00,CLR,CLR,0.00,WeatherDisplay:10.37,2013-08-05 08:11:00,
2013-08-05 03:41:00,63.0,55.6,30.08,East,100,0.0,0.0,77,0.00,CLR,CLR,0.00,WeatherDisplay:10.37,2013-08-05 08:41:00,
2013-08-05 04:10:00,63.0,55.6,30.08,East,100,0.0,0.0,77,0.00,CLR,CLR,0.00,WeatherDisplay:10.37,2013-08-05 09:10:00,
2013-08-05 04:40:00,63.0,56.7,30.07,East,100,0.0,0.0,80,0.00,CLR,CLR,0.00,WeatherDisplay:10.37,2013-08-05 09:40:00,
2013-08-05 05:11:00,63.0,56.7,30.07,East,100,0.0,0.0,80,0.00,CLR,CLR,0.00,WeatherDisplay:10.37,2013-08-05 10:11:00,
2013-08-05 05:40:00,62.1,56.8,30.07,East,100,0.0,0.0,83,0.00,CLR,CLR,0.00,WeatherDisplay:10.37,2013-08-05 10:40:00,
2013-08-05 06:10:00,62.1,56.8,30.07,East,100,0.0,0.0,83,0.00,CLR,CLR,0.00,WeatherDisplay:10.37,2013-08-05 11:10:00,
2013-08-05 06:41:00,63.0,57.7,30.07,East,100,0.0,0.0,83,0.00,CLR,CLR,0.00,WeatherDisplay:10.37,2013-08-05 11:41:00,
2013-08-05 07:11:00,63.0,57.7,30.07,East,100,0.0,0.0,83,0.00,CLR,CLR,0.00,WeatherDisplay:10.37,2013-08-05 12:11:00,
2013-08-05 07:40:00,63.0,57.7,30.05,South,190,5.0,5.0,83,0.00,CLR,CLR,0.00,WeatherDisplay:10.37,2013-08-05 12:40:00,
2013-08-05 08:11:00,63.0,57.7,30.05,South,190,5.0,5.0,83,0.00,CLR,CLR,0.00,WeatherDisplay:10.37,2013-08-05 13:11:00,
2013-08-05 08:41:00,66.9,58.7,30.05,South,170,6.0,6.0,75,0.00,CLR,CLR,0.00,WeatherDisplay:10.37,2013-08-05 13:41:00,
2013-08-05 09:11:00,66.9,58.7,30.05,South,170,6.0,6.0,75,0.00,CLR,CLR,0.00,WeatherDisplay:10.37,2013-08-05 14:11:00,
2013-08-05 09:41:00,70.0,58.9,30.06,SE,140,7.0,7.0,68,0.00,BKN,BKN,0.00,WeatherDisplay:10.37,2013-08-05 14:41:00,
2013-08-05 10:41:00,73.0,58.8,30.04,South,180,9.0,9.0,61,0.00,BKN,BKN,0.00,WeatherDisplay:10.37,2013-08-05 15:41:00,
2013-08-05 11:11:00,73.0,58.8,30.04,South,180,9.0,9.0,61,0.00,BKN,BKN,0.00,WeatherDisplay:10.37,2013-08-05 16:11:00,
2013-08-05 11:41:00,72.0,58.7,30.01,South,170,9.0,9.0,63,0.00,OVC,OVC,0.00,WeatherDisplay:10.37,2013-08-05 16:41:00,
2013-08-05 12:41:00,73.0,58.8,30.00,South,180,13.0,13.0,61,0.00,OVC,OVC,0.00,WeatherDisplay:10.37,2013-08-05 17:41:00,
2013-08-05 13:11:00,73.0,58.8,30.00,South,180,13.0,13.0,61,0.00,OVC,OVC,0.00,WeatherDisplay:10.37,2013-08-05 18:11:00,
2013-08-05 13:41:00,72.0,60.0,30.02,NE,50,3.0,3.0,66,0.00,OVC,OVC,0.00,WeatherDisplay:10.37,2013-08-05 18:41:00,
2013-08-05 14:41:00,69.1,63.7,30.00,SE,140,6.0,6.0,83,0.00,-RA,-RA,0.01,WeatherDisplay:10.37,2013-08-05 19:41:00,
2013-08-05 15:41:00,70.0,62.8,29.97,ESE,110,5.0,5.0,78,0.00,OVC,OVC,0.02,WeatherDisplay:10.37,2013-08-05 20:41:00,
2013-08-05 16:11:00,70.0,62.8,29.97,ESE,110,5.0,5.0,78,0.00,OVC,OVC,0.02,WeatherDisplay:10.37,2013-08-05 21:11:00,
2013-08-05 17:11:00,73.9,64.7,29.94,SSE,160,7.0,7.0,73,0.00,OVC,OVC,0.02,WeatherDisplay:10.37,2013-08-05 22:11:00,
2013-08-05 17:41:00,77.0,63.9,29.92,South,170,12.0,12.0,64,0.00,FEW,FEW,0.02,WeatherDisplay:10.37,2013-08-05 22:41:00,
2013-08-05 18:11:00,77.0,63.9,29.92,South,170,12.0,12.0,64,0.00,FEW,FEW,0.02,WeatherDisplay:10.37,2013-08-05 23:11:00,
2013-08-05 18:41:00,77.0,63.9,29.89,SSE,160,9.0,9.0,64,0.00,BKN,BKN,0.02,WeatherDisplay:10.37,2013-08-05 23:41:00,
2013-08-05 19:11:00,77.0,63.9,29.89,SSE,160,9.0,9.0,64,0.00,BKN,BKN,0.02,WeatherDisplay:10.37,2013-08-06 00:11:00,
2013-08-05 19:41:00,75.0,63.7,29.88,SSE,160,7.0,7.0,68,0.00,FEW,FEW,0.02,WeatherDisplay:10.37,2013-08-06 00:41:00,
2013-08-05 20:11:00,75.0,63.7,29.88,SSE,160,7.0,7.0,68,0.00,FEW,FEW,0.02,WeatherDisplay:10.37,2013-08-06 01:11:00,
2013-08-05 20:41:00,72.0,64.0,29.90,South,190,7.0,10.0,76,0.00,BKN,BKN,0.02,WeatherDisplay:10.37,2013-08-06 01:41:00,
2013-08-05 21:41:00,73.0,63.9,29.91,South,190,7.0,7.0,73,0.00,OVC,OVC,0.02,WeatherDisplay:10.37,2013-08-06 02:41:00,
2013-08-05 22:11:00,73.0,63.9,29.91,South,190,7.0,7.0,73,0.00,OVC,OVC,0.02,WeatherDisplay:10.37,2013-08-06 03:11:00,
2013-08-05 23:11:00,73.0,64.6,29.93,SW,220,6.0,6.0,75,0.00,OVC,OVC,0.02,WeatherDisplay:10.37,2013-08-06 04:11:00,
2013-08-05 23:41:00,71.1,66.0,29.91,South,170,12.0,12.0,84,0.00,BKN,BKN,0.02,WeatherDisplay:10.37,2013-08-06 04:41:00,